When you browse on this site, cookies collect data to enhance your experience and personalize the content and advertising you see.
Visit our Privacy Policy to learn more. By continuing to use the site, you agree to this use of cookies and data.

Stündliche Wetter Samroung

Heute, 13 August, Donnerstag

Zeit Temperatur Niederschläge Wind Luftdruck Luftfeuchtigkeit
00:00 +27°C° 0 mm 1 m/S 756 mmHg 88%
01:00 +27°C° 0 mm 1 m/S 755 mmHg 89%
02:00 +27°C° 0.1 mm 1 m/S 755 mmHg 89%
03:00 +27°C° 0.1 mm 1 m/S 755 mmHg 90%
04:00 +27°C° 0.1 mm 1 m/S 754 mmHg 91%
05:00 +27°C° 0.6 mm 1 m/S 754 mmHg 89%
06:00 +28°C° 0.6 mm 1 m/S 755 mmHg 87%
07:00 +28°C° 0.6 mm 1 m/S 755 mmHg 86%
08:00 +30°C° 0.2 mm 2 m/S 755 mmHg 81%
09:00 +31°C° 0.2 mm 3 m/S 755 mmHg 76%
10:00 +33°C° 0.2 mm 3 m/S 755 mmHg 71%
11:00 +33°C° 0.1 mm 3 m/S 755 mmHg 68%
12:00 +34°C° 0.1 mm 4 m/S 755 mmHg 66%
13:00 +34°C° 0.1 mm 4 m/S 754 mmHg 64%
14:00 +34°C° 0.1 mm 4 m/S 754 mmHg 65%
15:00 +33°C° 0.1 mm 4 m/S 753 mmHg 66%
16:00 +33°C° 0.1 mm 4 m/S 753 mmHg 66%
17:00 +31°C° 0.6 mm 3 m/S 753 mmHg 73%
18:00 +29°C° 0.6 mm 2 m/S 753 mmHg 79%
19:00 +28°C° 0.6 mm 1 m/S 754 mmHg 85%
20:00 +28°C° 0.7 mm 1 m/S 755 mmHg 86%
21:00 +28°C° 0.7 mm 1 m/S 755 mmHg 87%
22:00 +26°C° 0.7 mm 0 m/S 756 mmHg 88%
23:00 +25°C° 0.5 mm 0 m/S 756 mmHg 90%

Morgen, 14 August, Freitag

Zeit Temperatur Niederschläge Wind Luftdruck Luftfeuchtigkeit
00:00 +25°C° 0.5 mm 0 m/S 756 mmHg 92%
01:00 +24°C° 0.5 mm 0 m/S 755 mmHg 94%
02:00 +24°C° 0.2 mm 0 m/S 755 mmHg 94%
03:00 +26°C° 0.2 mm 1 m/S 755 mmHg 94%
04:00 +26°C° 0.2 mm 1 m/S 754 mmHg 94%
05:00 +26°C° 1.1 mm 1 m/S 755 mmHg 94%
06:00 +26°C° 1.1 mm 2 m/S 755 mmHg 95%
07:00 +26°C° 1.1 mm 2 m/S 756 mmHg 95%
08:00 +26°C° 1.6 mm 2 m/S 756 mmHg 95%
09:00 +26°C° 1.6 mm 2 m/S 756 mmHg 95%
10:00 +26°C° 1.6 mm 2 m/S 756 mmHg 96%
11:00 +26°C° 0.3 mm 2 m/S 756 mmHg 95%
12:00 +26°C° 0.3 mm 2 m/S 756 mmHg 94%
13:00 +27°C° 0.3 mm 2 m/S 755 mmHg 93%
14:00 +27°C° 0 mm 2 m/S 755 mmHg 91%
15:00 +27°C° 0 mm 1 m/S 754 mmHg 90%
16:00 +27°C° 0 mm 1 m/S 753 mmHg 89%
17:00 +27°C° 0 mm 1 m/S 754 mmHg 89%
18:00 +27°C° 0 mm 1 m/S 754 mmHg 89%
19:00 +26°C° 0 mm 1 m/S 754 mmHg 89%
20:00 +26°C° 0 mm 1 m/S 755 mmHg 89%
21:00 +26°C° 0 mm 1 m/S 755 mmHg 89%
22:00 +26°C° 0 mm 1 m/S 756 mmHg 88%
23:00 +26°C° 0 mm 1 m/S 756 mmHg 88%

übermorgen, 15 August, Samstag

Zeit Temperatur Niederschläge Wind Luftdruck Luftfeuchtigkeit
00:00 +26°C° 0 mm 1 m/S 755 mmHg 87%
01:00 +26°C° 0 mm 1 m/S 755 mmHg 87%
02:00 +26°C° 0 mm 1 m/S 754 mmHg 87%
03:00 +25°C° 0 mm 1 m/S 754 mmHg 87%
04:00 +25°C° 0 mm 1 m/S 754 mmHg 87%
05:00 +26°C° 0 mm 1 m/S 754 mmHg 86%
06:00 +26°C° 0 mm 1 m/S 755 mmHg 85%
07:00 +27°C° 0 mm 1 m/S 755 mmHg 83%
08:00 +29°C° 0 mm 1 m/S 755 mmHg 76%
09:00 +30°C° 0 mm 1 m/S 755 mmHg 69%
10:00 +32°C° 0 mm 1 m/S 755 mmHg 62%
11:00 +33°C° 0 mm 1 m/S 755 mmHg 60%
12:00 +34°C° 0 mm 2 m/S 754 mmHg 57%
13:00 +35°C° 0 mm 2 m/S 754 mmHg 55%
14:00 +34°C° 0 mm 2 m/S 754 mmHg 58%
15:00 +34°C° 0 mm 3 m/S 753 mmHg 60%
16:00 +33°C° 0 mm 3 m/S 753 mmHg 63%
17:00 +31°C° 0 mm 3 m/S 753 mmHg 71%
18:00 +29°C° 0 mm 2 m/S 754 mmHg 79%
19:00 +28°C° 0 mm 2 m/S 754 mmHg 86%
20:00 +28°C° 0.1 mm 2 m/S 755 mmHg 87%
21:00 +27°C° 0.1 mm 1 m/S 755 mmHg 88%
22:00 +27°C° 0.1 mm 1 m/S 756 mmHg 89%
23:00 +27°C° 0 mm 1 m/S 755 mmHg 90%

16 August, Sonntag

Zeit Temperatur Niederschläge Wind Luftdruck Luftfeuchtigkeit
00:00 +27°C° 0 mm 1 m/S 755 mmHg 91%
01:00 +27°C° 0 mm 1 m/S 755 mmHg 92%
02:00 +27°C° 0.1 mm 1 m/S 755 mmHg 92%
03:00 +27°C° 0.1 mm 1 m/S 754 mmHg 92%
04:00 +26°C° 0.1 mm 1 m/S 754 mmHg 92%
05:00 +27°C° 0.1 mm 1 m/S 754 mmHg 90%
06:00 +27°C° 0.1 mm 1 m/S 755 mmHg 87%
07:00 +28°C° 0.1 mm 1 m/S 755 mmHg 85%
08:00 +29°C° 0.1 mm 1 m/S 755 mmHg 77%
09:00 +31°C° 0.1 mm 1 m/S 755 mmHg 70%
10:00 +34°C° 0.1 mm 2 m/S 756 mmHg 62%
11:00 +34°C° 0.4 mm 2 m/S 755 mmHg 63%
12:00 +34°C° 0.4 mm 2 m/S 755 mmHg 64%
13:00 +34°C° 0.4 mm 3 m/S 754 mmHg 64%
14:00 +33°C° 0.4 mm 3 m/S 754 mmHg 67%
15:00 +33°C° 0.4 mm 3 m/S 753 mmHg 69%
16:00 +31°C° 0.4 mm 3 m/S 753 mmHg 72%
17:00 +30°C° 0.1 mm 3 m/S 753 mmHg 77%
18:00 +29°C° 0.1 mm 3 m/S 754 mmHg 82%
19:00 +28°C° 0.1 mm 2 m/S 754 mmHg 87%
20:00 +28°C° 0 mm 2 m/S 755 mmHg 88%
21:00 +27°C° 0 mm 2 m/S 755 mmHg 90%
22:00 +27°C° 0 mm 2 m/S 756 mmHg 91%
23:00 +27°C° 0 mm 2 m/S 756 mmHg 91%

17 August, Montag

Zeit Temperatur Niederschläge Wind Luftdruck Luftfeuchtigkeit
00:00 +27°C° 0 mm 2 m/S 755 mmHg 92%
01:00 +27°C° 0 mm 2 m/S 755 mmHg 92%
02:00 +27°C° 0 mm 2 m/S 755 mmHg 92%
03:00 +27°C° 0 mm 2 m/S 754 mmHg 92%
04:00 +27°C° 0 mm 1 m/S 754 mmHg 92%
05:00 +27°C° 0 mm 1 m/S 754 mmHg 90%
06:00 +27°C° 0 mm 1 m/S 755 mmHg 89%
07:00 +28°C° 0 mm 1 m/S 755 mmHg 88%
08:00 +29°C° 0 mm 1 m/S 755 mmHg 80%
09:00 +31°C° 0 mm 2 m/S 755 mmHg 72%
10:00 +32°C° 0 mm 2 m/S 756 mmHg 63%
11:00 +34°C° 0 mm 2 m/S 755 mmHg 61%
12:00 +34°C° 0 mm 3 m/S 755 mmHg 59%
13:00 +35°C° 0 mm 3 m/S 754 mmHg 57%
14:00 +34°C° 0 mm 3 m/S 754 mmHg 59%
15:00 +34°C° 0 mm 4 m/S 753 mmHg 61%
16:00 +33°C° 0 mm 4 m/S 753 mmHg 63%
17:00 +31°C° 0 mm 3 m/S 753 mmHg 71%
18:00 +29°C° 0 mm 3 m/S 753 mmHg 78%
19:00 +28°C° 0 mm 2 m/S 754 mmHg 86%
20:00 +28°C° 0 mm 2 m/S 754 mmHg 87%
21:00 +28°C° 0 mm 2 m/S 755 mmHg 88%
22:00 +28°C° 0 mm 2 m/S 756 mmHg 90%
23:00 +27°C° 0 mm 2 m/S 755 mmHg 90%

18 August, Dienstag

Zeit Temperatur Niederschläge Wind Luftdruck Luftfeuchtigkeit
00:00 +27°C° 0 mm 2 m/S 755 mmHg 91%
01:00 +27°C° 0 mm 2 m/S 755 mmHg 92%
02:00 +27°C° 0 mm 2 m/S 754 mmHg 92%
03:00 +27°C° 0 mm 2 m/S 754 mmHg 93%
04:00 +27°C° 0 mm 2 m/S 754 mmHg 93%
05:00 +27°C° 0 mm 2 m/S 754 mmHg 92%
06:00 +27°C° 0 mm 2 m/S 754 mmHg 91%
07:00 +28°C° 0 mm 2 m/S 755 mmHg 90%
08:00 +29°C° 0 mm 2 m/S 755 mmHg 83%
09:00 +30°C° 0 mm 2 m/S 755 mmHg 76%
10:00 +32°C° 0 mm 2 m/S 755 mmHg 69%
11:00 +33°C° 0 mm 3 m/S 755 mmHg 67%
12:00 +34°C° 0 mm 3 m/S 754 mmHg 65%
13:00 +34°C° 0 mm 4 m/S 754 mmHg 62%
14:00 +34°C° 0.1 mm 4 m/S 753 mmHg 65%
15:00 +33°C° 0.1 mm 4 m/S 753 mmHg 67%
16:00 +33°C° 0.1 mm 4 m/S 752 mmHg 69%
17:00 +30°C° 0 mm 4 m/S 753 mmHg 75%
18:00 +29°C° 0 mm 3 m/S 753 mmHg 81%
19:00 +28°C° 0 mm 2 m/S 754 mmHg 87%
20:00 +28°C° 0 mm 2 m/S 754 mmHg 89%
21:00 +28°C° 0 mm 2 m/S 755 mmHg 90%
22:00 +28°C° 0 mm 2 m/S 756 mmHg 91%
23:00 +28°C° 0 mm 2 m/S 755 mmHg 91%
Mehr zeigen